���t ����,���t,����,���[1m,���[3m,���[10m
2024/02/01 1:00:00,2024/02/01,01:00:00,999,999,999
2024/02/01 2:00:00,2024/02/01,02:00:00,999,999,999
2024/02/01 3:00:00,2024/02/01,03:00:00,999,999,999
2024/02/01 4:00:00,2024/02/01,04:00:00,999,999,999
2024/02/01 5:00:00,2024/02/01,05:00:00,999,999,999
2024/02/01 6:00:00,2024/02/01,06:00:00,999,999,999
2024/02/01 7:00:00,2024/02/01,07:00:00,999,999,999
2024/02/01 8:00:00,2024/02/01,08:00:00,999,999,999
2024/02/01 9:00:00,2024/02/01,09:00:00,999,999,999
2024/02/01 10:00:00,2024/02/01,10:00:00,999,999,999
2024/02/01 11:00:00,2024/02/01,11:00:00,999,999,999
2024/02/01 12:00:00,2024/02/01,12:00:00,999,999,999
2024/02/01 13:00:00,2024/02/01,13:00:00,999,999,999
2024/02/01 14:00:00,2024/02/01,14:00:00,999,999,999
2024/02/01 15:00:00,2024/02/01,15:00:00,999,999,999
2024/02/01 16:00:00,2024/02/01,16:00:00,999,999,999
2024/02/01 17:00:00,2024/02/01,17:00:00,999,999,999
2024/02/01 18:00:00,2024/02/01,18:00:00,999,999,999
2024/02/01 19:00:00,2024/02/01,19:00:00,999,999,999
2024/02/01 20:00:00,2024/02/01,20:00:00,999,999,999
2024/02/01 21:00:00,2024/02/01,21:00:00,999,999,999
2024/02/01 22:00:00,2024/02/01,22:00:00,999,999,999
2024/02/01 23:00:00,2024/02/01,23:00:00,999,999,999
2024/02/02 0:00:00,2024/02/02,00:00:00,999,999,999
2024/02/02 1:00:00,2024/02/02,01:00:00,999,999,999
2024/02/02 2:00:00,2024/02/02,02:00:00,999,999,999
2024/02/02 3:00:00,2024/02/02,03:00:00,999,999,999
2024/02/02 4:00:00,2024/02/02,04:00:00,999,999,999
2024/02/02 5:00:00,2024/02/02,05:00:00,999,999,999
2024/02/02 6:00:00,2024/02/02,06:00:00,999,999,999
2024/02/02 7:00:00,2024/02/02,07:00:00,999,999,999
2024/02/02 8:00:00,2024/02/02,08:00:00,999,999,999
2024/02/02 9:00:00,2024/02/02,09:00:00,999,999,999
2024/02/02 10:00:00,2024/02/02,10:00:00,999,999,999
2024/02/02 11:00:00,2024/02/02,11:00:00,999,999,999
2024/02/02 12:00:00,2024/02/02,12:00:00,999,999,999
2024/02/02 13:00:00,2024/02/02,13:00:00,999,999,999
2024/02/02 14:00:00,2024/02/02,14:00:00,999,999,999
2024/02/02 15:00:00,2024/02/02,15:00:00,999,999,999
2024/02/02 16:00:00,2024/02/02,16:00:00,999,999,999
2024/02/02 17:00:00,2024/02/02,17:00:00,999,999,999
2024/02/02 18:00:00,2024/02/02,18:00:00,999,999,999
2024/02/02 19:00:00,2024/02/02,19:00:00,999,999,999
2024/02/02 20:00:00,2024/02/02,20:00:00,999,999,999
2024/02/02 21:00:00,2024/02/02,21:00:00,999,999,999
2024/02/02 22:00:00,2024/02/02,22:00:00,999,999,999
2024/02/02 23:00:00,2024/02/02,23:00:00,999,999,999
2024/02/03 0:00:00,2024/02/03,00:00:00,999,999,999
2024/02/03 1:00:00,2024/02/03,01:00:00,999,999,999
2024/02/03 2:00:00,2024/02/03,02:00:00,999,999,999
2024/02/03 3:00:00,2024/02/03,03:00:00,999,999,999
2024/02/03 4:00:00,2024/02/03,04:00:00,999,999,999
2024/02/03 5:00:00,2024/02/03,05:00:00,999,999,999
2024/02/03 6:00:00,2024/02/03,06:00:00,999,999,999
2024/02/03 7:00:00,2024/02/03,07:00:00,999,999,999
2024/02/03 8:00:00,2024/02/03,08:00:00,999,999,999
2024/02/03 9:00:00,2024/02/03,09:00:00,999,999,999
2024/02/03 10:00:00,2024/02/03,10:00:00,999,999,999
2024/02/03 11:00:00,2024/02/03,11:00:00,999,999,999
2024/02/03 12:00:00,2024/02/03,12:00:00,999,999,999
2024/02/03 13:00:00,2024/02/03,13:00:00,999,999,999
2024/02/03 14:00:00,2024/02/03,14:00:00,999,999,999
2024/02/03 15:00:00,2024/02/03,15:00:00,999,999,999
2024/02/03 16:00:00,2024/02/03,16:00:00,999,999,999
2024/02/03 17:00:00,2024/02/03,17:00:00,999,999,999
2024/02/03 18:00:00,2024/02/03,18:00:00,999,999,999
2024/02/03 19:00:00,2024/02/03,19:00:00,999,999,999
2024/02/03 20:00:00,2024/02/03,20:00:00,999,999,999
2024/02/03 21:00:00,2024/02/03,21:00:00,999,999,999
2024/02/03 22:00:00,2024/02/03,22:00:00,999,999,999
2024/02/03 23:00:00,2024/02/03,23:00:00,999,999,999
2024/02/04 0:00:00,2024/02/04,00:00:00,999,999,999
2024/02/04 1:00:00,2024/02/04,01:00:00,999,999,999

2024/02/04 3:00:00,2024/02/04,03:00:00,999,999,999
2024/02/04 4:00:00,2024/02/04,04:00:00,999,999,999
2024/02/04 5:00:00,2024/02/04,05:00:00,999,999,999
2024/02/04 6:00:00,2024/02/04,06:00:00,999,999,999
2024/02/04 7:00:00,2024/02/04,07:00:00,999,999,999
2024/02/04 8:00:00,2024/02/04,08:00:00,999,999,999
2024/02/04 9:00:00,2024/02/04,09:00:00,999,999,999
2024/02/04 10:00:00,2024/02/04,10:00:00,999,999,999
2024/02/04 11:00:00,2024/02/04,11:00:00,999,999,999
2024/02/04 12:00:00,2024/02/04,12:00:00,999,999,999
2024/02/04 13:00:00,2024/02/04,13:00:00,999,999,999
2024/02/04 14:00:00,2024/02/04,14:00:00,999,999,999
2024/02/04 15:00:00,2024/02/04,15:00:00,999,999,999
2024/02/04 16:00:00,2024/02/04,16:00:00,999,999,999
2024/02/04 17:00:00,2024/02/04,17:00:00,999,999,999
2024/02/04 18:00:00,2024/02/04,18:00:00,999,999,999
2024/02/04 19:00:00,2024/02/04,19:00:00,999,999,999
2024/02/04 20:00:00,2024/02/04,20:00:00,999,999,999
2024/02/04 21:00:00,2024/02/04,21:00:00,999,999,999
2024/02/04 22:00:00,2024/02/04,22:00:00,999,999,999
2024/02/04 23:00:00,2024/02/04,23:00:00,999,999,999
2024/02/05 0:00:00,2024/02/05,00:00:00,999,999,999
2024/02/05 1:00:00,2024/02/05,01:00:00,999,999,999
2024/02/05 2:00:00,2024/02/05,02:00:00,999,999,999
2024/02/05 3:00:00,2024/02/05,03:00:00,999,999,999
2024/02/05 4:00:00,2024/02/05,04:00:00,999,999,999
2024/02/05 5:00:00,2024/02/05,05:00:00,999,999,999
2024/02/05 6:00:00,2024/02/05,06:00:00,999,999,999
2024/02/05 7:00:00,2024/02/05,07:00:00,999,999,999
2024/02/05 8:00:00,2024/02/05,08:00:00,999,999,999
2024/02/05 9:00:00,2024/02/05,09:00:00,999,999,999
2024/02/05 10:00:00,2024/02/05,10:00:00,999,999,999
2024/02/05 11:00:00,2024/02/05,11:00:00,999,999,999
2024/02/05 12:00:00,2024/02/05,12:00:00,999,999,999
2024/02/05 13:00:00,2024/02/05,13:00:00,999,999,999
2024/02/05 14:00:00,2024/02/05,14:00:00,999,999,999
2024/02/05 15:00:00,2024/02/05,15:00:00,999,999,999
2024/02/05 16:00:00,2024/02/05,16:00:00,999,999,999
2024/02/05 17:00:00,2024/02/05,17:00:00,999,999,999
2024/02/05 18:00:00,2024/02/05,18:00:00,999,999,999
2024/02/05 19:00:00,2024/02/05,19:00:00,999,999,999
2024/02/05 20:00:00,2024/02/05,20:00:00,999,999,999
2024/02/05 21:00:00,2024/02/05,21:00:00,999,999,999
2024/02/05 22:00:00,2024/02/05,22:00:00,999,999,999
2024/02/05 23:00:00,2024/02/05,23:00:00,999,999,999
2024/02/06 0:00:00,2024/02/06,00:00:00,999,999,999
2024/02/06 1:00:00,2024/02/06,01:00:00,999,999,999
2024/02/06 2:00:00,2024/02/06,02:00:00,999,999,999
2024/02/06 3:00:00,2024/02/06,03:00:00,999,999,999
2024/02/06 4:00:00,2024/02/06,04:00:00,999,999,999
2024/02/06 5:00:00,2024/02/06,05:00:00,999,999,999
2024/02/06 6:00:00,2024/02/06,06:00:00,999,999,999
2024/02/06 7:00:00,2024/02/06,07:00:00,999,999,999
2024/02/06 8:00:00,2024/02/06,08:00:00,999,999,999
2024/02/06 9:00:00,2024/02/06,09:00:00,999,999,999
2024/02/06 10:00:00,2024/02/06,10:00:00,999,999,999
2024/02/06 11:00:00,2024/02/06,11:00:00,999,999,999
2024/02/06 12:00:00,2024/02/06,12:00:00,999,999,999
2024/02/06 13:00:00,2024/02/06,13:00:00,999,999,999
2024/02/06 14:00:00,2024/02/06,14:00:00,999,999,999
2024/02/06 15:00:00,2024/02/06,15:00:00,999,999,999
2024/02/06 16:00:00,2024/02/06,16:00:00,999,999,999
2024/02/06 17:00:00,2024/02/06,17:00:00,999,999,999
2024/02/06 18:00:00,2024/02/06,18:00:00,999,999,999
2024/02/06 19:00:00,2024/02/06,19:00:00,999,999,999
2024/02/06 20:00:00,2024/02/06,20:00:00,999,999,999
2024/02/06 21:00:00,2024/02/06,21:00:00,999,999,999
2024/02/06 22:00:00,2024/02/06,22:00:00,999,999,999
2024/02/06 23:00:00,2024/02/06,23:00:00,999,999,999
2024/02/07 0:00:00,2024/02/07,00:00:00,999,999,999
2024/02/07 1:00:00,2024/02/07,01:00:00,999,999,999
2024/02/07 2:00:00,2024/02/07,02:00:00,999,999,999
2024/02/07 3:00:00,2024/02/07,03:00:00,999,999,999
2024/02/07 4:00:00,2024/02/07,04:00:00,999,999,999
2024/02/07 5:00:00,2024/02/07,05:00:00,999,999,999
2024/02/07 6:00:00,2024/02/07,06:00:00,999,999,999
2024/02/07 7:00:00,2024/02/07,07:00:00,999,999,999
2024/02/07 8:00:00,2024/02/07,08:00:00,999,999,999
2024/02/07 9:00:00,2024/02/07,09:00:00,999,999,999
2024/02/07 10:00:00,2024/02/07,10:00:00,999,999,999
2024/02/07 11:00:00,2024/02/07,11:00:00,999,999,999
2024/02/07 12:00:00,2024/02/07,12:00:00,999,999,999
2024/02/07 13:00:00,2024/02/07,13:00:00,999,999,999
2024/02/07 14:00:00,2024/02/07,14:00:00,999,999,999
2024/02/07 15:00:00,2024/02/07,15:00:00,999,999,999
2024/02/07 16:00:00,2024/02/07,16:00:00,999,999,999
2024/02/07 17:00:00,2024/02/07,17:00:00,999,999,999
2024/02/07 18:00:00,2024/02/07,18:00:00,999,999,999
2024/02/07 19:00:00,2024/02/07,19:00:00,999,999,999
2024/02/07 20:00:00,2024/02/07,20:00:00,999,999,999
2024/02/07 21:00:00,2024/02/07,21:00:00,999,999,999
2024/02/07 22:00:00,2024/02/07,22:00:00,999,999,999
2024/02/07 23:00:00,2024/02/07,23:00:00,999,999,999
2024/02/08 0:00:00,2024/02/08,00:00:00,999,999,999
2024/02/08 1:00:00,2024/02/08,01:00:00,999,999,999
2024/02/08 2:00:00,2024/02/08,02:00:00,999,999,999
2024/02/08 3:00:00,2024/02/08,03:00:00,999,999,999
2024/02/08 4:00:00,2024/02/08,04:00:00,999,999,999
2024/02/08 5:00:00,2024/02/08,05:00:00,999,999,999
2024/02/08 6:00:00,2024/02/08,06:00:00,999,999,999
2024/02/08 7:00:00,2024/02/08,07:00:00,999,999,999
2024/02/08 8:00:00,2024/02/08,08:00:00,999,999,999
2024/02/08 9:00:00,2024/02/08,09:00:00,999,999,999
2024/02/08 10:00:00,2024/02/08,10:00:00,999,999,999
2024/02/08 11:00:00,2024/02/08,11:00:00,999,999,999
2024/02/08 12:00:00,2024/02/08,12:00:00,999,999,999
2024/02/08 13:00:00,2024/02/08,13:00:00,999,999,999
2024/02/08 14:00:00,2024/02/08,14:00:00,999,999,999
2024/02/08 15:00:00,2024/02/08,15:00:00,999,999,999
2024/02/08 16:00:00,2024/02/08,16:00:00,999,999,999
2024/02/08 17:00:00,2024/02/08,17:00:00,999,999,999
2024/02/08 18:00:00,2024/02/08,18:00:00,999,999,999
2024/02/08 19:00:00,2024/02/08,19:00:00,999,999,999
2024/02/08 20:00:00,2024/02/08,20:00:00,999,999,999
2024/02/08 21:00:00,2024/02/08,21:00:00,999,999,999
2024/02/08 22:00:00,2024/02/08,22:00:00,999,999,999
2024/02/08 23:00:00,2024/02/08,23:00:00,999,999,999
2024/02/09 0:00:00,2024/02/09,00:00:00,999,999,999
2024/02/09 1:00:00,2024/02/09,01:00:00,999,999,999
2024/02/09 2:00:00,2024/02/09,02:00:00,999,999,999
2024/02/09 3:00:00,2024/02/09,03:00:00,999,999,999
2024/02/09 4:00:00,2024/02/09,04:00:00,999,999,999
2024/02/09 5:00:00,2024/02/09,05:00:00,999,999,999
2024/02/09 6:00:00,2024/02/09,06:00:00,999,999,999
2024/02/09 7:00:00,2024/02/09,07:00:00,999,999,999
2024/02/09 8:00:00,2024/02/09,08:00:00,999,999,999
2024/02/09 9:00:00,2024/02/09,09:00:00,999,999,999
2024/02/09 10:00:00,2024/02/09,10:00:00,999,999,999
2024/02/09 11:00:00,2024/02/09,11:00:00,999,999,999
2024/02/09 12:00:00,2024/02/09,12:00:00,999,999,999
2024/02/09 13:00:00,2024/02/09,13:00:00,999,999,999
2024/02/09 14:00:00,2024/02/09,14:00:00,999,999,999
2024/02/09 15:00:00,2024/02/09,15:00:00,999,999,999
2024/02/09 16:00:00,2024/02/09,16:00:00,999,999,999
2024/02/09 17:00:00,2024/02/09,17:00:00,999,999,999
2024/02/09 18:00:00,2024/02/09,18:00:00,999,999,999
2024/02/09 19:00:00,2024/02/09,19:00:00,999,999,999
2024/02/09 20:00:00,2024/02/09,20:00:00,999,999,999
2024/02/09 21:00:00,2024/02/09,21:00:00,999,999,999
2024/02/09 22:00:00,2024/02/09,22:00:00,999,999,999
2024/02/09 23:00:00,2024/02/09,23:00:00,999,999,999
2024/02/10 0:00:00,2024/02/10,00:00:00,999,999,999
2024/02/10 1:00:00,2024/02/10,01:00:00,999,999,999
2024/02/10 2:00:00,2024/02/10,02:00:00,999,999,999
2024/02/10 3:00:00,2024/02/10,03:00:00,999,999,999
2024/02/10 4:00:00,2024/02/10,04:00:00,999,999,999
2024/02/10 5:00:00,2024/02/10,05:00:00,999,999,999
2024/02/10 6:00:00,2024/02/10,06:00:00,999,999,999
2024/02/10 7:00:00,2024/02/10,07:00:00,999,999,999
2024/02/10 8:00:00,2024/02/10,08:00:00,999,999,999
2024/02/10 9:00:00,2024/02/10,09:00:00,999,999,999
2024/02/10 10:00:00,2024/02/10,10:00:00,999,999,999
2024/02/10 11:00:00,2024/02/10,11:00:00,999,999,999
2024/02/10 12:00:00,2024/02/10,12:00:00,999,999,999
2024/02/10 13:00:00,2024/02/10,13:00:00,999,999,999
2024/02/10 14:00:00,2024/02/10,14:00:00,999,999,999
2024/02/10 15:00:00,2024/02/10,15:00:00,999,999,999
2024/02/10 16:00:00,2024/02/10,16:00:00,999,999,999
2024/02/10 17:00:00,2024/02/10,17:00:00,999,999,999
2024/02/10 18:00:00,2024/02/10,18:00:00,999,999,999
2024/02/10 19:00:00,2024/02/10,19:00:00,999,999,999
2024/02/10 20:00:00,2024/02/10,20:00:00,999,999,999
2024/02/10 21:00:00,2024/02/10,21:00:00,999,999,999
2024/02/10 22:00:00,2024/02/10,22:00:00,999,999,999
2024/02/10 23:00:00,2024/02/10,23:00:00,999,999,999
2024/02/11 0:00:00,2024/02/11,00:00:00,999,999,999
2024/02/11 1:00:00,2024/02/11,01:00:00,999,999,999
2024/02/11 2:00:00,2024/02/11,02:00:00,999,999,999
2024/02/11 3:00:00,2024/02/11,03:00:00,999,999,999
2024/02/11 4:00:00,2024/02/11,04:00:00,999,999,999
2024/02/11 5:00:00,2024/02/11,05:00:00,999,999,999
2024/02/11 6:00:00,2024/02/11,06:00:00,999,999,999
2024/02/11 7:00:00,2024/02/11,07:00:00,999,999,999
2024/02/11 8:00:00,2024/02/11,08:00:00,999,999,999
2024/02/11 9:00:00,2024/02/11,09:00:00,999,999,999
2024/02/11 10:00:00,2024/02/11,10:00:00,999,999,999
2024/02/11 11:00:00,2024/02/11,11:00:00,999,999,999
2024/02/11 12:00:00,2024/02/11,12:00:00,999,999,999
2024/02/11 13:00:00,2024/02/11,13:00:00,999,999,999
2024/02/11 14:00:00,2024/02/11,14:00:00,999,999,999
2024/02/11 15:00:00,2024/02/11,15:00:00,999,999,999
2024/02/11 16:00:00,2024/02/11,16:00:00,999,999,999
2024/02/11 17:00:00,2024/02/11,17:00:00,999,999,999
2024/02/11 18:00:00,2024/02/11,18:00:00,999,999,999
2024/02/11 19:00:00,2024/02/11,19:00:00,999,999,999
2024/02/11 20:00:00,2024/02/11,20:00:00,999,999,999
2024/02/11 21:00:00,2024/02/11,21:00:00,999,999,999
2024/02/11 22:00:00,2024/02/11,22:00:00,999,999,999
2024/02/11 23:00:00,2024/02/11,23:00:00,999,999,999
2024/02/12 0:00:00,2024/02/12,00:00:00,999,999,999
2024/02/12 1:00:00,2024/02/12,01:00:00,999,999,999
2024/02/12 2:00:00,2024/02/12,02:00:00,999,999,999
2024/02/12 3:00:00,2024/02/12,03:00:00,999,999,999
2024/02/12 4:00:00,2024/02/12,04:00:00,999,999,999
2024/02/12 5:00:00,2024/02/12,05:00:00,999,999,999
2024/02/12 6:00:00,2024/02/12,06:00:00,999,999,999
2024/02/12 7:00:00,2024/02/12,07:00:00,999,999,999
2024/02/12 8:00:00,2024/02/12,08:00:00,999,999,999
2024/02/12 9:00:00,2024/02/12,09:00:00,999,999,999
2024/02/12 10:00:00,2024/02/12,10:00:00,999,999,999
2024/02/12 11:00:00,2024/02/12,11:00:00,999,999,999
2024/02/12 12:00:00,2024/02/12,12:00:00,14.52,14.53,14.58
2024/02/12 13:00:00,2024/02/12,13:00:00,14.61,14.58,14.61
2024/02/12 14:00:00,2024/02/12,14:00:00,14.7,14.64,14.64
2024/02/12 15:00:00,2024/02/12,15:00:00,14.69,14.66,14.65
2024/02/12 16:00:00,2024/02/12,16:00:00,14.75,14.66,14.67
2024/02/12 17:00:00,2024/02/12,17:00:00,14.68,14.66,14.66
2024/02/12 18:00:00,2024/02/12,18:00:00,999,999,999
2024/02/12 19:00:00,2024/02/12,19:00:00,999,999,999
2024/02/12 20:00:00,2024/02/12,20:00:00,999,999,999
2024/02/12 21:00:00,2024/02/12,21:00:00,999,999,999
2024/02/12 22:00:00,2024/02/12,22:00:00,999,999,999
2024/02/12 23:00:00,2024/02/12,23:00:00,999,999,999
2024/02/13 0:00:00,2024/02/13,00:00:00,999,999,999
2024/02/13 1:00:00,2024/02/13,01:00:00,999,999,999
2024/02/13 2:00:00,2024/02/13,02:00:00,999,999,999
2024/02/13 3:00:00,2024/02/13,03:00:00,999,999,999
2024/02/13 4:00:00,2024/02/13,04:00:00,999,999,999
2024/02/13 5:00:00,2024/02/13,05:00:00,999,999,999
2024/02/13 6:00:00,2024/02/13,06:00:00,999,999,999
2024/02/13 7:00:00,2024/02/13,07:00:00,999,999,999
2024/02/13 8:00:00,2024/02/13,08:00:00,999,999,999
2024/02/13 9:00:00,2024/02/13,09:00:00,999,999,999
2024/02/13 10:00:00,2024/02/13,10:00:00,999,999,999
2024/02/13 11:00:00,2024/02/13,11:00:00,15.18,15.11,15.17
2024/02/13 12:00:00,2024/02/13,12:00:00,15.31,15.14,15.17
2024/02/13 13:00:00,2024/02/13,13:00:00,15.44,15.16,15.16
2024/02/13 14:00:00,2024/02/13,14:00:00,999,999,999
2024/02/13 15:00:00,2024/02/13,15:00:00,999,999,999
2024/02/13 16:00:00,2024/02/13,16:00:00,15.49,15.29,15.22
2024/02/13 17:00:00,2024/02/13,17:00:00,999,999,999
2024/02/13 18:00:00,2024/02/13,18:00:00,999,999,999
2024/02/13 19:00:00,2024/02/13,19:00:00,999,999,999
2024/02/13 20:00:00,2024/02/13,20:00:00,999,999,999
2024/02/13 21:00:00,2024/02/13,21:00:00,999,999,999
2024/02/13 22:00:00,2024/02/13,22:00:00,999,999,999
2024/02/13 23:00:00,2024/02/13,23:00:00,999,999,999
2024/02/14 0:00:00,2024/02/14,00:00:00,999,999,999
2024/02/14 1:00:00,2024/02/14,01:00:00,999,999,999
2024/02/14 2:00:00,2024/02/14,02:00:00,999,999,999
2024/02/14 3:00:00,2024/02/14,03:00:00,999,999,999
2024/02/14 4:00:00,2024/02/14,04:00:00,999,999,999
2024/02/14 5:00:00,2024/02/14,05:00:00,999,999,999
2024/02/14 6:00:00,2024/02/14,06:00:00,999,999,999
2024/02/14 7:00:00,2024/02/14,07:00:00,999,999,999
2024/02/14 8:00:00,2024/02/14,08:00:00,999,999,999
2024/02/14 9:00:00,2024/02/14,09:00:00,999,999,999
2024/02/14 10:00:00,2024/02/14,10:00:00,999,999,999
2024/02/14 11:00:00,2024/02/14,11:00:00,999,999,999
2024/02/14 12:00:00,2024/02/14,12:00:00,999,999,999
2024/02/14 13:00:00,2024/02/14,13:00:00,999,999,999
2024/02/14 14:00:00,2024/02/14,14:00:00,999,999,999
2024/02/14 15:00:00,2024/02/14,15:00:00,999,999,999
2024/02/14 16:00:00,2024/02/14,16:00:00,999,999,999
2024/02/14 17:00:00,2024/02/14,17:00:00,999,999,999
2024/02/14 18:00:00,2024/02/14,18:00:00,15.12,15.16,15.17
2024/02/14 19:00:00,2024/02/14,19:00:00,999,999,999
2024/02/14 20:00:00,2024/02/14,20:00:00,999,999,999
2024/02/14 21:00:00,2024/02/14,21:00:00,999,999,999
2024/02/14 22:00:00,2024/02/14,22:00:00,999,999,999
2024/02/14 23:00:00,2024/02/14,23:00:00,999,999,999
2024/02/15 0:00:00,2024/02/15,00:00:00,999,999,999
2024/02/15 1:00:00,2024/02/15,01:00:00,999,999,999
2024/02/15 2:00:00,2024/02/15,02:00:00,999,999,999
2024/02/15 3:00:00,2024/02/15,03:00:00,999,999,999
2024/02/15 4:00:00,2024/02/15,04:00:00,999,999,999
2024/02/15 5:00:00,2024/02/15,05:00:00,999,999,999
2024/02/15 6:00:00,2024/02/15,06:00:00,999,999,999
2024/02/15 7:00:00,2024/02/15,07:00:00,999,999,999
2024/02/15 8:00:00,2024/02/15,08:00:00,999,999,999
2024/02/15 9:00:00,2024/02/15,09:00:00,999,999,999
2024/02/15 10:00:00,2024/02/15,10:00:00,999,999,999
2024/02/15 11:00:00,2024/02/15,11:00:00,999,999,999
2024/02/15 12:00:00,2024/02/15,12:00:00,999,999,999
2024/02/15 13:00:00,2024/02/15,13:00:00,999,999,999
2024/02/15 14:00:00,2024/02/15,14:00:00,999,999,999
2024/02/15 15:00:00,2024/02/15,15:00:00,999,999,999
2024/02/15 16:00:00,2024/02/15,16:00:00,999,999,999
2024/02/15 17:00:00,2024/02/15,17:00:00,999,999,999
2024/02/15 18:00:00,2024/02/15,18:00:00,999,999,999
2024/02/15 19:00:00,2024/02/15,19:00:00,999,999,999
2024/02/15 20:00:00,2024/02/15,20:00:00,999,999,999
2024/02/15 21:00:00,2024/02/15,21:00:00,999,999,999
2024/02/15 22:00:00,2024/02/15,22:00:00,999,999,999
2024/02/15 23:00:00,2024/02/15,23:00:00,999,999,999
2024/02/16 0:00:00,2024/02/16,00:00:00,999,999,999
2024/02/16 1:00:00,2024/02/16,01:00:00,999,999,999
2024/02/16 2:00:00,2024/02/16,02:00:00,999,999,999
2024/02/16 3:00:00,2024/02/16,03:00:00,999,999,999
2024/02/16 4:00:00,2024/02/16,04:00:00,999,999,999
2024/02/16 5:00:00,2024/02/16,05:00:00,999,999,999
2024/02/16 6:00:00,2024/02/16,06:00:00,999,999,999
2024/02/16 7:00:00,2024/02/16,07:00:00,999,999,999
2024/02/16 8:00:00,2024/02/16,08:00:00,999,999,999
2024/02/16 9:00:00,2024/02/16,09:00:00,999,999,999
2024/02/16 10:00:00,2024/02/16,10:00:00,999,999,999
2024/02/16 11:00:00,2024/02/16,11:00:00,15.12,15.16,15.23
2024/02/16 12:00:00,2024/02/16,12:00:00,15.17,15.16,15.23
2024/02/16 13:00:00,2024/02/16,13:00:00,15.18,15.21,15.23
2024/02/16 14:00:00,2024/02/16,14:00:00,15.3,15.29,15.26
2024/02/16 15:00:00,2024/02/16,15:00:00,15.3,15.3,15.27
2024/02/16 16:00:00,2024/02/16,16:00:00,15.38,15.41,15.42
2024/02/16 17:00:00,2024/02/16,17:00:00,15.3,15.32,15.35
2024/02/16 18:00:00,2024/02/16,18:00:00,15.24,15.29,15.33
2024/02/16 19:00:00,2024/02/16,19:00:00,15.19,15.23,15.29
2024/02/16 20:00:00,2024/02/16,20:00:00,15.18,15.22,15.29
2024/02/16 21:00:00,2024/02/16,21:00:00,15.21,15.23,15.33
2024/02/16 22:00:00,2024/02/16,22:00:00,15.24,15.24,15.35
2024/02/16 23:00:00,2024/02/16,23:00:00,15.27,15.29,15.36
2024/02/17 0:00:00,2024/02/17,00:00:00,15.28,15.29,15.39
2024/02/17 1:00:00,2024/02/17,01:00:00,15.28,15.29,15.37
2024/02/17 2:00:00,2024/02/17,02:00:00,15.25,15.29,15.36
2024/02/17 3:00:00,2024/02/17,03:00:00,15.24,15.29,15.36
2024/02/17 4:00:00,2024/02/17,04:00:00,15.25,15.28,15.36
2024/02/17 5:00:00,2024/02/17,05:00:00,15.23,15.24,15.31
2024/02/17 6:00:00,2024/02/17,06:00:00,15.21,15.23,15.31
2024/02/17 7:00:00,2024/02/17,07:00:00,15.24,15.23,15.3
2024/02/17 8:00:00,2024/02/17,08:00:00,15.18,15.23,15.31
2024/02/17 9:00:00,2024/02/17,09:00:00,15.2,15.23,15.3
2024/02/17 10:00:00,2024/02/17,10:00:00,15.24,15.25,15.31
2024/02/17 11:00:00,2024/02/17,11:00:00,999,999,999
2024/02/17 12:00:00,2024/02/17,12:00:00,999,999,999
2024/02/17 13:00:00,2024/02/17,13:00:00,15.41,15.35,15.35
2024/02/17 14:00:00,2024/02/17,14:00:00,15.52,15.42,15.4
2024/02/17 15:00:00,2024/02/17,15:00:00,15.47,15.4,15.37
2024/02/17 16:00:00,2024/02/17,16:00:00,15.66,15.43,15.42
2024/02/17 17:00:00,2024/02/17,17:00:00,15.56,15.47,15.4
2024/02/17 18:00:00,2024/02/17,18:00:00,999,999,999
2024/02/17 19:00:00,2024/02/17,19:00:00,999,999,999
2024/02/17 20:00:00,2024/02/17,20:00:00,999,999,999
2024/02/17 21:00:00,2024/02/17,21:00:00,999,999,999
2024/02/17 22:00:00,2024/02/17,22:00:00,999,999,999
2024/02/17 23:00:00,2024/02/17,23:00:00,999,999,999
2024/02/18 0:00:00,2024/02/18,00:00:00,999,999,999
2024/02/18 1:00:00,2024/02/18,01:00:00,999,999,999
2024/02/18 2:00:00,2024/02/18,02:00:00,999,999,999
2024/02/18 3:00:00,2024/02/18,03:00:00,999,999,999
2024/02/18 4:00:00,2024/02/18,04:00:00,999,999,999
2024/02/18 5:00:00,2024/02/18,05:00:00,999,999,999
2024/02/18 6:00:00,2024/02/18,06:00:00,999,999,999
2024/02/18 7:00:00,2024/02/18,07:00:00,999,999,999
2024/02/18 8:00:00,2024/02/18,08:00:00,999,999,999
2024/02/18 9:00:00,2024/02/18,09:00:00,999,999,999
2024/02/18 10:00:00,2024/02/18,10:00:00,999,999,999
2024/02/18 11:00:00,2024/02/18,11:00:00,15.4,15.35,15.41
2024/02/18 12:00:00,2024/02/18,12:00:00,15.49,15.35,15.37
2024/02/18 13:00:00,2024/02/18,13:00:00,999,999,999
2024/02/18 14:00:00,2024/02/18,14:00:00,999,999,999
2024/02/18 15:00:00,2024/02/18,15:00:00,999,999,999
2024/02/18 16:00:00,2024/02/18,16:00:00,999,999,999
2024/02/18 17:00:00,2024/02/18,17:00:00,999,999,999
2024/02/18 18:00:00,2024/02/18,18:00:00,999,999,999
2024/02/18 19:00:00,2024/02/18,19:00:00,999,999,999
2024/02/18 20:00:00,2024/02/18,20:00:00,999,999,999
2024/02/18 21:00:00,2024/02/18,21:00:00,999,999,999
2024/02/18 22:00:00,2024/02/18,22:00:00,999,999,999
2024/02/18 23:00:00,2024/02/18,23:00:00,999,999,999
2024/02/19 0:00:00,2024/02/19,00:00:00,999,999,999
2024/02/19 1:00:00,2024/02/19,01:00:00,999,999,999
2024/02/19 2:00:00,2024/02/19,02:00:00,999,999,999
2024/02/19 3:00:00,2024/02/19,03:00:00,999,999,999
2024/02/19 4:00:00,2024/02/19,04:00:00,999,999,999
2024/02/19 5:00:00,2024/02/19,05:00:00,999,999,999
2024/02/19 6:00:00,2024/02/19,06:00:00,999,999,999
2024/02/19 7:00:00,2024/02/19,07:00:00,999,999,999
2024/02/19 8:00:00,2024/02/19,08:00:00,999,999,999
2024/02/19 9:00:00,2024/02/19,09:00:00,999,999,999
2024/02/19 10:00:00,2024/02/19,10:00:00,999,999,999
2024/02/19 11:00:00,2024/02/19,11:00:00,999,999,999
2024/02/19 12:00:00,2024/02/19,12:00:00,999,999,999
2024/02/19 13:00:00,2024/02/19,13:00:00,999,999,999
2024/02/19 14:00:00,2024/02/19,14:00:00,999,999,999
2024/02/19 15:00:00,2024/02/19,15:00:00,999,999,999
2024/02/19 16:00:00,2024/02/19,16:00:00,999,999,999
2024/02/19 17:00:00,2024/02/19,17:00:00,999,999,999
2024/02/19 18:00:00,2024/02/19,18:00:00,999,999,999
2024/02/19 19:00:00,2024/02/19,19:00:00,999,999,999
2024/02/19 20:00:00,2024/02/19,20:00:00,999,999,999